Regional Weather Roundup
Issued by NWS

Home | Current Version | Previous Version | Text Only | Print | Product List | Glossary Off
Versions: 1 2 3 4 5 6 7 8 9 10 11 12 13 14 15 16 17 18 19 20 21 22 23 24 25 26 27 28 29 30 31 32 33 34 35 36 37 38 39 40 41 42 43 44 45 46 47 48 49 50

313
ASUS44 KLIX 301307
RWRLA
LOUISIANA WEATHER ROUNDUP
NATIONAL WEATHER SERVICE NEW ORLEANS LA
800 AM CDT MON MAR 30 2015

NOTE: "FAIR" INDICATES FEW OR NO CLOUDS BELOW 12,000 FEET WITH NO
      SIGNIFICANT WEATHER AND/OR OBSTRUCTIONS TO VISIBILITY.
      SKY/WX - SKY CONDITION AND SIGNIFICANT WEATHER.
      TMP - AIR TEMPERATURE.    DP   - DEWPOINT TEMPERATURE.
      RH  - RELATIVE HUMIDITY.  PRES - PRESSURE.
      HX  - HEAT INDEX.         WCI  - WIND CHILL INDEX.

*  THESE STATIONS ARE NOT NWS OR FAA STATIONS AND ARE NOT UNDER
   NWS QUALITY CONTROL.

LAZ040-048-061>063-065-066-069-301400-
SOUTHEAST LOUISIANA

CITY           SKY/WX    TMP DP  RH WIND       PRES   REMARKS
N.O. AUDUBON   NOT AVBL
N.O. INTL ARPT PTSUNNY   65  61  87 CALM      30.25R FOG
N.O. LAKEFRONT PTSUNNY   68  63  84 N5        30.26R
SLIDELL        PTSUNNY   59  58  96 CALM      30.24R
BATON ROUGE    SUNNY     61  59  93 CALM      30.24R
BOOTHVILLE     SUNNY     64  62  93 CALM      30.26R
BELLE CHASSE   PTSUNNY   62  60  93 CALM      30.25R FOG
BOGALUSA*        N/A     58  55  91 CALM      30.25R
GALLIANO*      CLOUDY    56  56  99 CALM      30.25R FOG
NEW ROADS*     FAIR      60  59  97 CALM      30.24R FOG
GONZALES*      CLOUDY    60  60 100 CALM      30.24R FOG
HAMMOND*       MOSUNNY   61  57  88 CALM      30.26R
HOUMA*         MOSUNNY   61  61 100 CALM      30.25R
PORT FOURCHON* MOSUNNY   72  66  83 CALM      30.28R

$$

LAZ041-044-053-054-301400-
SOUTHWEST LOUISIANA

CITY           SKY/WX    TMP DP  RH WIND       PRES   REMARKS
LAKE CHARLES   SUNNY     61  60  97 CALM      30.22R
LAFAYETTE      SUNNY     63  62  97 CALM      30.23R FOG
PATTERSON      MOSUNNY   61  59  94 CALM      30.24S
SALT POINT       N/A     65  63  93 CALM      30.22R
NEW IBERIA     MOSUNNY   62  60  93 CALM      30.24R
CHENAULT AIRPK NOT AVBL

$$

LAZ027-028-301400-
CENTRAL LOUISIANA

CITY           SKY/WX    TMP DP  RH WIND       PRES   REMARKS
FORT POLK      MOSUNNY   59  58  95 S1        30.21R
ALEXANDRIA INT MOSUNNY   60  60 100 S7        30.20S FOG
ALEXANDRIA     CLOUDY    55  55 100 CALM      30.21S FOG

$$

LAZ001-002-301400-
NORTHWEST LOUISIANA

CITY           SKY/WX    TMP DP  RH WIND       PRES   REMARKS
SHREVEPORT     CLOUDY    64  61  90 S3        30.18S
BARKSDALE AFB  MOSUNNY   64  62  94 S6        30.18S
DTN SHREVEPORT MOSUNNY   65  60  84 SW9       30.18S

$$

LAZ014-016-301400-
NORTHEAST LOUISIANA

CITY           SKY/WX    TMP DP  RH WIND       PRES   REMARKS
MONROE         CLOUDY    65  62  90 SW6       30.21R
TALLULAH       CLOUDY    64  60  87 SW5       30.22R

$$




USA.gov is the U.S. government's official web portal to all federal, state and local government web resources and services.